Regional Weather Roundup
Issued by NWS

Home | Current Version | Previous Version | Text Only | Print | Product List | Glossary On
Versions: 1 2 3 4 5 6 7 8 9 10 11 12 13 14 15 16 17 18 19 20 21 22 23 24 25 26 27 28 29 30 31 32 33 34 35 36 37 38 39 40 41 42 43 44 45 46 47 48 49 50
000
ASHW40 PHFO 280510
RWRHI

WEATHER ROUNDUP FOR HAWAII
NATIONAL WEATHER SERVICE HONOLULU HI
700 PM HST SAT DEC 27 2014

THIS IS AN AUTOMATED REPORT THAT HAS NOT BEEN QUALITY CONTROLLED.

NOTE..."FAIR" INDICATES FEW OR NO CLOUDS BELOW 12,000 FEET WITH NO
SIGNIFICANT WEATHER AND/OR OBSTRUCTIONS TO VISIBILITY.

* - THESE SITES REPORT LIMITED FIELDS

HIZ001>004-280600-
KAUAI-NIIHAU-

CITY           SKY/WX    TMP DP  RH WIND       PRES   REMARKS
LIHUE APT      PTCLDY    69  54  58 NW8       29.94R
PORT ALLEN*      N/A     72 N/A N/A SW7         N/A
POIPU*           N/A     70 N/A N/A VRB8G17     N/A
PRINCEVILLE*     N/A     70 N/A N/A MISG        N/A
KOKOLE POINT*  NOT AVBL
MOLOAA DAIRY*  NOT AVBL
WAIMEA HTS*    NOT AVBL
PUU OPAE*      NOT AVBL
PUU LUA*       NOT AVBL
MAKAHA RIDGE*  NOT AVBL
$$

HIZ005>011-280600-
OAHU-

CITY           SKY/WX    TMP DP  RH WIND       PRES   REMARKS
HONOLULU       PTCLDY    71  57  61 N12       29.91R
KALAELOA       PTCLDY    70  56  61 VRB5      29.92R
KANEOHE MCB    MOCLDY    71  59  65 N14       29.92R
WHEELER FIELD  FAIR      66  56  70 NW6       29.92R
BELLOWS*       NOT AVBL
KAHUKU*        NOT AVBL
WHEELER*       NOT AVBL
WAIANAE HARBOR NOT AVBL
DILLINGHAM*      N/A     70  57  64 N1G7        N/A
KAHUKU TRN*      N/A     68  54  60 N6G15       N/A
KAWAILOA*        N/A     64  55  72 VRB6G12     N/A
KII*             N/A     72  57  60 NW12G18     N/A
MAKUA RANGE*     N/A     72  55  56 NE6G15      N/A
OAHU FOREST NW NOT AVBL
SCHOFIELD BRK*   N/A     66  55  68 MISG        N/A
SCHOFIELD S*   NOT AVBL
WAIANAE VLY*   NOT AVBL
KUAOKALA*      NOT AVBL
HONOULIUULI*   NOT AVBL
MOKUOLOE IS*     N/A    N/A N/A N/A MISG        N/A
PALEHUA*       NOT AVBL
WAIAWA PHB*    NOT AVBL
$$

HIZ012>013-280600-
MOLOKAI-

CITY           SKY/WX    TMP DP  RH WIND       PRES   REMARKS
MOLOKAI AIRPT  PTCLDY    68  57  68 N13G18    29.91R
KALAUPAPA      NOT AVBL
MAKAPULAPAI*   NOT AVBL
MOLOKAI 1*     NOT AVBL
PUU ALII*      NOT AVBL
$$

HIZ016-280600-
KAHOOLAWE-

CITY           SKY/WX    TMP DP  RH WIND       PRES   REMARKS
KAHOOLAWE*     NOT AVBL
HAKIOAWA*      NOT AVBL
HONOKANAIA*      N/A     72  57  58 VRB8G20   29.91R
KANELOA*         N/A     70  57  64 N18G30    29.09R
KEALIALALO*    NOT AVBL
LUA MAKIKA*    NOT AVBL
$$

HIZ014>015-280600-
LANAI-

CITY           SKY/WX    TMP DP  RH WIND       PRES   REMARKS
LANAI CITY     FAIR      63  54  72 E3        29.94R
LANAI 1*       NOT AVBL
$$

HIZ017>028-280600-
MAUI-

CITY           SKY/WX    TMP DP  RH WIND       PRES   REMARKS
KAHULUI        PTCLDY    72  56  57 N10       29.91R
KAPALUA-W MAUI NOT AVBL
HANA AIRPORT   CLEAR     66  55  68 W6        29.93S
HANA*          NOT AVBL
HALEAKALA SUMM   N/A     36 -17  10 N47         N/A  WCI  20
MAALAEA BAY*   NOT AVBL
HALEAKALA*     NOT AVBL
KAUPO GAP*     NOT AVBL
KULA 1*          N/A     48 -29   3 N6G15       N/A
$$

HIZ023>026-280600-
BIG ISLAND OF HAWAII COAST AND LOWER SLOPES-

CITY           SKY/WX    TMP DP  RH WIND       PRES   REMARKS
KAILUA KONA    CLEAR     76  63  64 N15       29.86R
HILO           PTCLDY    74  63  68 N20G29    29.85R
HONOKAA*       NOT AVBL
KAWAIHAE MWT*  NOT AVBL
KAWAIHAE*        N/A     75 N/A N/A W1          N/A
SOUTH POINT*   NOT AVBL
UPOLU AIRPORT* NOT AVBL
KAMUELA*       CLEAR     57  55  94 E9        29.99R
HAKALAU*         N/A     45  37  76 W3          N/A
KALOKO-HONOKO* NOT AVBL
PALI 2*          N/A     63  59  88 NE7G13      N/A
KEALAKOMO*       N/A     68  55  64 N18G31      N/A
KAUPULEHU*     NOT AVBL
KAPAPALA*        N/A     65  62  91 CALM        N/A
LOWER KAHUKU*  NOT AVBL
PUHE CS*       NOT AVBL
PUHO CS*       NOT AVBL
PTA KEAMUKU*     N/A     54  52  94 CALM        N/A
WAIKOLOA*      NOT AVBL
$$

HIZ027>028-280600-
BIG ISLAND OF HAWAII INTERIOR AND SUMMMITS-

CITY           SKY/WX    TMP DP  RH WIND       PRES   REMARKS
BRADSHAW FIELD CLOUDY    46  45  93 SW7       30.16R FOG
MK VISITOR CEN NOT AVBL
MAUNA KEA*       N/A     30 -17  12 VRB64G81    N/A  WCI  10
MAUNA LOA*     NOT AVBL
MAUNA LOA 1*   NOT AVBL
PTA KIPUKA*      N/A     55  54  94 NW3         N/A
PTA RANGE 17*    N/A     52  50  93 W3          N/A
PTA WEST*        N/A     55  54  94 N2          N/A
NENE CABIN*    NOT AVBL
AHUMOA*        NOT AVBL
PTA PORTABLE*  NOT AVBL
PUU MALI*      NOT AVBL
$$

HIC003-280600-
NORTHWEST ISLANDS-

CITY           SKY/WX    TMP DP  RH WIND       PRES   REMARKS
MIDWAY ISLAND  CLEAR     73  68  83 W13       29.97R
MIDWAY NOS*    NOT AVBL
FRENCH FRIGATE NOT AVBL
$$

PHZ110>124-180-280600-
BUOY REPORTS

STATION/POSITION TIME  TEMP    WIND        PRES    WAVE   SWELL
                       AIR SEA DIR/SP/G            HT/PER HT/DIR
                 (UTC) (F)     (DEG/KT/KT) (MB)    (FT/S) (FT/D)
BUOY 51001       NOT AVBL
BUOY 51101       0500   70 76  350/ 12/ 16 1014.2R   9/13   8/300
BUOY 51100       0500   72 74  340/ 16/ 17 1010.1R
BUOY 51003       0400   75 79  360/ 16/ 19 1012.0R   7/14   5
BUOY 51004       0358   76 78  330/  8/ 12 1010.6R   6/ 9   5/ 80
BARBERS PT BUOY  NOT AVBL
WAIMEA BAY BUOY  0500      77                N/A     9/10   5/320
KAILUA BAY BUOY  0500      76                N/A     8/ 9   3/ 10
LANAI BUOY       0500      77                N/A     4/12   2/190
BARBERS PT 2     0500      77                N/A     5/13   3/320
PAUWELA MAUI     0500      77                N/A     8/ 9
HILO             0500      78                N/A     8/ 9   3/350
KANEOHE BAY BUOY 0500      76                N/A     7/ 9   2
HANALEI KAUAI    NOT AVBL
KAHULUI HARBOR   0500   72                   N/A
HONOLULU HARBOR  0500   72                   N/A
KILO NALU        NOT AVBL
HILO HARBOR      0500   74                   N/A
MOKUOLOE         0500   73                   N/A
NAWILIWILI       0400      77                N/A
WHOTS BUOY       NOT AVBL
BUOY 51028       NOT AVBL
$$

......................KEY........................................
  SKY/WX - SKY CONDITIONS/PRESENT WEATHER
  TMP    - TEMPERATURE IN FAHRENHEIT
  DWPT   - DEWPOINT IN FAHRENHEIT
  RH     - RELATIVE HUMIDITY IN PERCENT
  WIND   - DIRECTION AND SPEED /MPH FOR ISLANDS...KTS FOR BUOYS/
  PRES   - MEAN SEA LEVEL PRESSURE IN INCHES OF HG
  VSB    - VISIBILITY IN MILES
  HX     - HEAT INDEX
  WCI    - WIND CHILL INDEX
  VRB    - VARIABLE WIND DIRECTION
  N/A    - NOT AVAILABLE



USA.gov is the U.S. government's official web portal to all federal, state and local government web resources and services.